This is the latest recevied weather packets stored in our database for station/object HS5FXK-3. If no packets are shown the sender has not sent any weather packets the latest 10 day(s).
| Time | Temp. | Humidity | Pressure | Rain* | Wind** | Luminosity | Snow |
|---|---|---|---|---|---|---|---|
| 1777353514 | 38.89° C | 34% | 977 hPa | - | - | 0 W/m² | - |
| 1777352600 | 40° C | 31% | 977 hPa | - | - | 0 W/m² | - |
| 1777351687 | 39.44° C | 32% | 977 hPa | - | - | 0 W/m² | - |
| 1777350775 | 40° C | 32% | 977 hPa | - | - | 0 W/m² | - |
| 1777349862 | 40° C | 33% | 977 hPa | - | - | 0 W/m² | - |
| 1777348950 | 38.33° C | 34% | 978 hPa | - | - | 0 W/m² | - |
| 1777348038 | 37.78° C | 36% | 978 hPa | - | - | 0 W/m² | - |
| 1777347501 | 37.78° C | 37% | 978 hPa | - | - | 0 W/m² | - |
| 1777346589 | 36.67° C | 40% | 978 hPa | - | - | 0 W/m² | - |
| 1777345676 | 36.67° C | 41% | 978 hPa | - | - | 0 W/m² | - |
| 1777344764 | 34.44° C | 43% | 978 hPa | - | - | 0 W/m² | - |
| 1777343852 | 33.89° C | 46% | 978 hPa | - | - | 0 W/m² | - |
| 1777342939 | 33.33° C | 49% | 978 hPa | - | - | 0 W/m² | - |
| 1777342027 | 32.78° C | 50% | 978 hPa | - | - | 0 W/m² | - |
| 1777341881 | 32.22° C | 50% | 978 hPa | - | - | 0 W/m² | - |
| 1777340967 | 31.11° C | 54% | 978 hPa | - | - | 0 W/m² | - |
| 1777340055 | 31.11° C | 57% | 978 hPa | - | - | 0 W/m² | - |
| 1777339143 | 30° C | 62% | 978 hPa | - | - | 0 W/m² | - |
| 1777338230 | 28.89° C | 72% | 978 hPa | - | - | 0 W/m² | - |
| 1777337318 | 28.33° C | 76% | 978 hPa | - | - | 0 W/m² | - |
| 1777336469 | 27.22° C | 80% | 978 hPa | - | - | 0 W/m² | - |
| 1777335493 | 26.67° C | 85% | 978 hPa | - | - | 0 W/m² | - |
| 1777334836 | 26.67° C | 87% | 977 hPa | - | - | 0 W/m² | - |
| 1777334642 | 26.11° C | 86% | 977 hPa | - | - | 0 W/m² | - |
| 1777333730 | 25.56° C | 89% | 977 hPa | - | - | 0 W/m² | - |
* Rain since midnight (hover to see other rain measurements)
** Current wind speed in m/s (hover to see current wind gust speed)